KS4KP Keystone Heights FL US current weather conditions

sailwx.info

Wind from 097 at 0 knots gusting 2

Air temperature 16.7° C
Dewpoint 7.6° C

Last reported at 2020-Jan-28 22:00 UTC.
Time now 2020-Jan-28 22:17 UTC

Location: N 29°51' W 081°54'.
View on Google Maps.

See reports from other nearby stations

  
Tides and Currents Weather Stations Pressure Air Temp Water Temp Dewpoint Dewpoint Depression Visibility Wind Speed Wind Dir Waves Ship Positions
date/time (UTC)wind fromknots sea level pressurealtimeterstation pressurevisibilityair tempwater tempwave heightnotes
2020-Jan-28 22:00 097 0 gusting 2 16.7
2020-Jan-28 21:50 097 1 gusting 4 17.2
2020-Jan-28 21:40 046 1 gusting 6 17.2
2020-Jan-28 21:30 078 0 gusting 5 17.8
2020-Jan-28 21:20 080 1 gusting 5 17.8
2020-Jan-28 21:10 083 1 gusting 6 17.8
2020-Jan-28 21:00 076 2 gusting 5 18.3
2020-Jan-28 20:50 080 1 gusting 4 18.3
2020-Jan-28 20:40 051 2 gusting 7 18.3
2020-Jan-28 20:30 092 3 gusting 6 18.3
2020-Jan-28 20:20 042 1 gusting 4 18.3
2020-Jan-28 20:10 074 1 gusting 6 18.3
2020-Jan-28 20:00 084 2 gusting 7 18.3
2020-Jan-28 19:50 018 2 gusting 4 18.3
2020-Jan-28 19:40 089 0 gusting 5 18.9
2020-Jan-28 19:30 049 1 gusting 5 18.3
2020-Jan-28 19:20 080 1 gusting 6 17.8
2020-Jan-28 19:10 065 2 gusting 6 18.3
2020-Jan-28 19:00 072 1 gusting 5 17.8
2020-Jan-28 18:50 316 1 gusting 6 17.8
2020-Jan-28 18:40 296 1 gusting 6 18.3
2020-Jan-28 18:30 303 1 gusting 6 17.8
2020-Jan-28 18:20 068 1 gusting 5 17.8
2020-Jan-28 18:10 293 1 gusting 4 17.8
2020-Jan-28 18:00 346 1 gusting 6 17.8
2020-Jan-28 17:50 046 1 gusting 5 17.2
2020-Jan-28 17:40 248 2 gusting 5 17.2
2020-Jan-28 17:30 084 2 gusting 6 16.7
2020-Jan-28 17:20 103 1 gusting 5 16.7
2020-Jan-28 17:10 115 3 gusting 6 16.7
2020-Jan-28 17:00 036 1 gusting 4 16.1
2020-Jan-28 16:50 047 1 gusting 7 15.6
2020-Jan-28 16:40 055 2 gusting 6 15.6
2020-Jan-28 16:30 148 1 gusting 5 15.6
2020-Jan-28 16:20 005 1 gusting 2 15.0
2020-Jan-28 16:10 070 0 gusting 2 15.0
2020-Jan-28 16:00 065 1 gusting 5 14.4
2020-Jan-28 15:50 306 14.4
2020-Jan-28 15:40 288 2 gusting 6 13.3
2020-Jan-28 15:30 059 1 gusting 6 13.3
2020-Jan-28 15:20 232 1 gusting 2 13.3
2020-Jan-28 15:10 336 1 gusting 5 12.8
2020-Jan-28 15:00 063 1 gusting 5 12.8
2020-Jan-28 14:50 073 1 gusting 6 12.2
2020-Jan-28 14:40 306 11.7
2020-Jan-28 14:30 081 2 gusting 5 11.1
2020-Jan-28 14:20 038 0 gusting 4 10.6
2020-Jan-28 14:10 263 0 gusting 4 9.4
2020-Jan-28 14:00 046 9.4
2020-Jan-28 13:50 090 0 gusting 2 8.9
2020-Jan-28 13:40 065 7.8
2020-Jan-28 13:30 065 7.2
2020-Jan-28 13:20 065 6.7
2020-Jan-28 13:10 065 6.1
2020-Jan-28 13:00 065 6.1
2020-Jan-28 12:50 065 6.1
2020-Jan-28 12:40 065 6.1
2020-Jan-28 12:30 065 6.1
2020-Jan-28 12:20 065 6.1
2020-Jan-28 12:10 065 6.7
2020-Jan-28 12:00 065 6.7
2020-Jan-28 11:50 065 6.7
2020-Jan-28 11:40 065 6.7
2020-Jan-28 11:30 065 6.7
2020-Jan-28 11:20 065 6.7
2020-Jan-28 11:10 065 7.2
2020-Jan-28 11:00 065 7.2
2020-Jan-28 10:50 065 7.2
2020-Jan-28 10:40 065 6.7
2020-Jan-28 10:30 065 6.7
2020-Jan-28 10:20 065 6.1
2020-Jan-28 10:10 065 6.7
2020-Jan-28 10:00 065 6.7
2020-Jan-28 09:50 065 6.7
2020-Jan-28 09:40 065 6.7
2020-Jan-28 09:30 065 7.2
2020-Jan-28 09:20 065 7.2
2020-Jan-28 09:10 065 7.2
2020-Jan-28 09:00 065 7.2
2020-Jan-28 08:50 065 6.7
2020-Jan-28 08:40 065 6.7
2020-Jan-28 08:30 065 6.7
2020-Jan-28 08:20 065 6.7
2020-Jan-28 08:10 065 7.2
2020-Jan-28 08:00 065 7.2
2020-Jan-28 07:50 065 7.2
2020-Jan-28 07:40 065 7.8
2020-Jan-28 07:30 065 7.8
2020-Jan-28 07:20 065 7.8
2020-Jan-28 07:10 065 7.8
2020-Jan-28 07:00 065 8.3
2020-Jan-28 06:50 065 8.3
2020-Jan-28 06:40 065 8.3
2020-Jan-28 06:30 065 8.9
2020-Jan-28 06:20 065 8.9
2020-Jan-28 06:10 065 9.4
2020-Jan-28 06:00 065 9.4
2020-Jan-28 05:50 065 10.0
2020-Jan-28 05:40 065 10.0
2020-Jan-28 05:30 065 10.6
2020-Jan-28 05:20 065 10.6
2020-Jan-28 05:10 065 11.1
2020-Jan-28 05:00 065 11.1
2020-Jan-28 04:50 065 11.7
2020-Jan-28 04:40 065 11.7
2020-Jan-28 04:30 065 12.2
2020-Jan-28 04:20 065 12.2
2020-Jan-28 04:10 065 12.8
2020-Jan-28 04:00 065 0 gusting 2 12.8
2020-Jan-28 03:50 199 12.8
2020-Jan-28 03:40 199 12.8
2020-Jan-28 03:30 199 12.8
2020-Jan-28 03:20 199 12.8
2020-Jan-28 03:10 199 12.8
2020-Jan-28 03:00 199 13.3
2020-Jan-28 02:50 199 13.3
2020-Jan-28 02:40 199 13.3
2020-Jan-28 02:30 199 13.9
2020-Jan-28 02:20 199 13.9
2020-Jan-28 02:10 199 13.9
2020-Jan-28 02:00 199 13.9
2020-Jan-28 01:50 199 14.4
2020-Jan-28 01:40 199 14.4
2020-Jan-28 01:30 199 14.4
2020-Jan-28 01:20 199 14.4
2020-Jan-28 01:10 199 14.4
2020-Jan-28 01:00 199 15.0
2020-Jan-28 00:50 199 15.0
2020-Jan-28 00:40 199 15.0
2020-Jan-28 00:30 199 15.0
2020-Jan-28 00:20 199 15.6
2020-Jan-28 00:10 199 15.6
2020-Jan-28 00:00 199 15.6
2020-Jan-27 23:50 199 16.1
2020-Jan-27 23:40 199 16.1
2020-Jan-27 23:30 199 16.1
2020-Jan-27 23:20 199 16.7
2020-Jan-27 23:10 199 16.7
2020-Jan-27 23:00 199 16.7
2020-Jan-27 22:50 199 17.2
2020-Jan-27 22:40 199 17.2
2020-Jan-27 22:30 199 17.8
2020-Jan-27 22:20 199 17.8
2020-Jan-27 22:10 199 17.8
2020-Jan-27 22:00 199 17.8
2020-Jan-27 21:50 199 17.8
2020-Jan-27 21:40 199 17.8
2020-Jan-27 21:30 199 17.8
2020-Jan-27 21:20 199 18.3
2020-Jan-27 21:10 199 18.3
2020-Jan-27 21:00 199 1 gusting 2 18.3
2020-Jan-27 20:50 199 0 gusting 2 18.3
2020-Jan-27 20:40 199 0 gusting 2 18.3
2020-Jan-27 20:30 199 0 gusting 2 18.3
2020-Jan-27 20:20 199 0 gusting 4 18.3
2020-Jan-27 20:10 199 1 gusting 4 17.8
2020-Jan-27 20:00 199 3 gusting 4 18.3
2020-Jan-27 19:50 199 1 gusting 2 18.3
2020-Jan-27 19:40 199 0 gusting 2 18.3
2020-Jan-27 19:30 199 0 gusting 2 18.3
2020-Jan-27 19:20 199 1 gusting 2 18.3
2020-Jan-27 19:10 199 0 gusting 2 18.3
2020-Jan-27 19:00 199 0 gusting 2 18.3
2020-Jan-27 18:50 200 18.3
2020-Jan-27 18:40 199 1 gusting 4 18.3
2020-Jan-27 18:30 199 1 gusting 4 17.8
2020-Jan-27 18:20 199 0 gusting 2 17.8
2020-Jan-27 18:10 199 1 gusting 2 17.8
2020-Jan-27 18:00 199 0 gusting 4 17.8
2020-Jan-27 17:50 199 17.2
2020-Jan-27 17:40 199 2 gusting 6 17.2
2020-Jan-27 17:30 200 1 gusting 5 17.2
2020-Jan-27 17:20 185 0 gusting 2 17.2
2020-Jan-27 17:10 185 1 gusting 5 16.7
2020-Jan-27 17:00 185 0 gusting 2 16.7
2020-Jan-27 16:50 185 2 gusting 4 16.7
2020-Jan-27 16:40 184 16.7
2020-Jan-27 16:30 185 0 gusting 2 16.7
2020-Jan-27 16:20 188 0 gusting 2 16.1
2020-Jan-27 16:10 188 16.1
2020-Jan-27 16:00 188 15.6
2020-Jan-27 15:50 188 15.0
2020-Jan-27 15:40 188 15.0
2020-Jan-27 15:30 188 15.0
2020-Jan-27 15:20 188 14.4
2020-Jan-27 15:10 188 14.4
2020-Jan-27 15:00 188 14.4
2020-Jan-27 14:50 192 0 gusting 2 13.9
2020-Jan-27 14:40 195 0 gusting 1 13.9
2020-Jan-27 14:30 196 13.3
2020-Jan-27 14:20 196 13.3
2020-Jan-27 14:10 259 12.8
2020-Jan-27 14:00 269 12.2
2020-Jan-27 13:50 269 11.7
2020-Jan-27 13:40 269 11.7
2020-Jan-27 13:30 269 11.1
2020-Jan-27 13:20 269 11.1
2020-Jan-27 13:10 269 11.1
2020-Jan-27 13:00 269 11.1
2020-Jan-27 12:50 269 11.1
2020-Jan-27 12:40 269 11.1
2020-Jan-27 12:30 269 11.1
2020-Jan-27 12:20 269 11.1
2020-Jan-27 12:10 269 11.1
2020-Jan-27 12:00 269 11.1
2020-Jan-27 11:50 269 11.1
2020-Jan-27 11:40 269 11.1
2020-Jan-27 11:30 269 11.1
2020-Jan-27 11:20 269 11.1
2020-Jan-27 11:10 269 11.1
2020-Jan-27 11:00 269 11.1
2020-Jan-27 10:50 269 11.1
2020-Jan-27 10:40 269 11.1
2020-Jan-27 10:30 269 11.1
2020-Jan-27 10:20 269 11.1
2020-Jan-27 10:10 269 11.1
2020-Jan-27 10:00 269 11.1
2020-Jan-27 09:50 269 11.1
2020-Jan-27 09:40 269 11.1
2020-Jan-27 09:30 269 11.1
2020-Jan-27 09:20 269 11.1
2020-Jan-27 09:10 269 11.1
2020-Jan-27 09:00 269 11.1
2020-Jan-27 08:50 269 11.1
2020-Jan-27 08:40 269 11.1
2020-Jan-27 08:30 269 11.7
2020-Jan-27 08:20 269 11.7
2020-Jan-27 08:10 269 11.7
2020-Jan-27 08:00 269 11.7
2020-Jan-27 07:50 269 11.7
2020-Jan-27 07:40 269 11.7
2020-Jan-27 07:30 269 11.7
2020-Jan-27 07:20 269 11.7
2020-Jan-27 07:10 269 11.7
2020-Jan-27 07:00 269 11.7
2020-Jan-27 06:50 269 11.7
2020-Jan-27 06:40 269 11.7
2020-Jan-27 06:30 269 11.7
2020-Jan-27 06:20 269 11.7
2020-Jan-27 06:10 269 11.7
2020-Jan-27 06:00 269 11.1
2020-Jan-27 05:50 269 11.1
2020-Jan-27 05:40 269 11.1
2020-Jan-27 05:30 269 11.1
2020-Jan-27 05:20 269 11.1
2020-Jan-27 05:10 269 11.1
2020-Jan-27 05:00 269 11.7
2020-Jan-27 04:50 269 11.7
2020-Jan-27 04:40 269 11.7
2020-Jan-27 04:30 269 11.7
2020-Jan-27 04:20 269 11.7
2020-Jan-27 04:10 269 11.7
2020-Jan-27 04:00 269 11.7
2020-Jan-27 03:50 269 11.7
2020-Jan-27 03:40 269 11.7
2020-Jan-27 03:30 269 11.7
2020-Jan-27 03:20 269 11.7
2020-Jan-27 03:10 269 11.7
2020-Jan-27 03:00 269 12.2
2020-Jan-27 02:50 269 12.2
2020-Jan-27 02:40 269 12.2
2020-Jan-27 02:30 269 12.2
2020-Jan-27 02:20 269 12.2
2020-Jan-27 02:10 269 12.2
2020-Jan-27 02:00 269 12.2
2020-Jan-27 01:50 269 12.8
2020-Jan-27 01:40 269 12.8
2020-Jan-27 01:30 269 12.8
2020-Jan-27 01:20 269 12.8
2020-Jan-27 01:10 269 12.8
2020-Jan-27 01:00 269 12.8
2020-Jan-27 00:50 269 13.3
2020-Jan-27 00:40 269 13.3
2020-Jan-27 00:30 269 13.3
2020-Jan-27 00:20 269 13.3
2020-Jan-27 00:10 269 13.3
2020-Jan-27 00:00 269 13.3
2020-Jan-26 23:50 269 13.3
2020-Jan-26 23:40 269 13.9
2020-Jan-26 23:30 269 13.9
2020-Jan-26 23:20 269 14.4
2020-Jan-26 23:10 269 15.0
2020-Jan-26 23:00 269 15.0
2020-Jan-26 22:50 269 15.6
2020-Jan-26 22:40 269 16.1
2020-Jan-26 22:30 269 16.1
2020-Jan-26 22:20 269 16.7
2020-Jan-26 22:10 269 17.2
2020-Jan-26 22:00 290 17.8